Weather History for KRWF - September, 2013

Change the Weather History Date:

Friday, September 6, 2013

  Actual Average Record
Temperature  
Mean Temperature 80 °F -  
Max Temperature 93 °F - - ()
Min Temperature 66 °F - - ()
Cooling Degree Days 14    
Growing Degree Days 30 (Base 50)    
Moisture  
Dew Point 66 °F    
Average Humidity 66    
Maximum Humidity 90    
Minimum Humidity 41    
Precipitation  
Precipitation 0.00 in - - ()
Sea Level Pressure  
Sea Level Pressure 29.93 in    
Wind  
Wind Speed 10 mph (South)    
Max Wind Speed 20 mph    
Max Gust Speed 25 mph    
Visibility 10 miles    
Events      
T = Trace of Precipitation, MM = Missing Value Source: NWS Daily Summary

Daily Weather History Graph

Daily Weather History Graph

Search for Another Location

Airport or City:

Trip Planner

Search our weather history database for the weather conditions in past years. The results will help you decide how hot, cold, wet, or windy it might be!

Date:

Astronomy

Sep. 06, 2013 Rise Set
Actual Time 6:49 AM CDT 7:47 PM CDT
Civil Twilight 6:19 AM CDT 8:16 PM CDT
Nautical Twilight 5:43 AM CDT 8:52 PM CDT
Astronomical Twilight 5:06 AM CDT 9:29 PM CDT
Moon 8:07 AM CDT 8:05 PM CDT
Length of Visible Light 13h 57m
Length of Day
12h 58m
New Moon, 2% of the Moon is Illuminated
Sep 6
New Moon
Sep 12
First Quarter
Sep 19
Full
Sep 26
Last Quarter
Oct 4
New

Hourly Weather History & Observations

Time (CDT) Temp. Heat Index Dew Point Humidity Pressure Visibility Wind Dir Wind Speed Gust Speed Precip Events Conditions
12:53 AM 70.0 °F - 64.0 °F 81% 30.06 in 10.0 mi South 5.8 mph - N/A   Clear
1:53 AM 68.0 °F - 63.0 °F 84% 30.06 in 10.0 mi SE 4.6 mph - N/A   Clear
2:53 AM 66.0 °F - 63.0 °F 90% 30.05 in 10.0 mi SE 5.8 mph - N/A   Clear
3:53 AM 66.9 °F - 63.0 °F 87% 30.04 in 10.0 mi SE 5.8 mph - N/A   Partly Cloudy
4:53 AM 68.0 °F - 64.0 °F 87% 30.04 in 10.0 mi SE 8.1 mph - N/A   Mostly Cloudy
5:53 AM 69.1 °F - 64.0 °F 84% 30.03 in 10.0 mi SSE 10.4 mph - N/A   Mostly Cloudy
6:53 AM 68.0 °F - 64.0 °F 87% 30.02 in 10.0 mi SSE 9.2 mph - N/A   Overcast
7:53 AM 71.1 °F - 64.0 °F 78% 30.01 in 10.0 mi SSE 11.5 mph - N/A   Overcast
8:53 AM 73.9 °F - 64.0 °F 71% 29.99 in 10.0 mi SSE 15.0 mph - N/A   Scattered Clouds
9:53 AM 78.1 °F - 64.0 °F 62% 29.97 in 10.0 mi South 15.0 mph - N/A   Clear
10:53 AM 82.9 °F 84.6 °F 64.9 °F 54% 29.96 in 10.0 mi South 13.8 mph - N/A   Clear
11:53 AM 88.0 °F 89.6 °F 64.9 °F 46% 29.94 in 10.0 mi South 17.3 mph 25.3 mph N/A   Clear
12:53 PM 90.0 °F 91.7 °F 64.9 °F 43% 29.91 in 10.0 mi South 16.1 mph 25.3 mph N/A   Clear
1:53 PM 91.9 °F 94.5 °F 66.0 °F 42% 29.89 in 10.0 mi SSW 19.6 mph 24.2 mph N/A   Clear
2:53 PM 93.0 °F 95.9 °F 66.0 °F 41% 29.87 in 10.0 mi South 17.3 mph 23.0 mph N/A   Clear
3:53 PM 93.0 °F 96.4 °F 66.9 °F 42% 29.86 in 10.0 mi SSW 16.1 mph 24.2 mph N/A   Clear
4:53 PM 91.9 °F 95.4 °F 66.9 °F 44% 29.84 in 10.0 mi South 19.6 mph 24.2 mph N/A   Clear
5:53 PM 91.9 °F 95.4 °F 66.9 °F 44% 29.83 in 10.0 mi SSW 12.7 mph - N/A   Clear
6:53 PM 88.0 °F 92.1 °F 69.1 °F 53% 29.84 in 10.0 mi SSW 6.9 mph - N/A   Clear
7:53 PM 82.9 °F 86.5 °F 69.1 °F 63% 29.84 in 10.0 mi South 6.9 mph - N/A   Clear
8:53 PM 81.0 °F 84.1 °F 69.1 °F 67% 29.84 in 10.0 mi SSW 8.1 mph - N/A   Clear
9:53 PM 78.1 °F - 70.0 °F 76% 29.85 in 10.0 mi SSW 5.8 mph - N/A   Clear
10:53 PM 75.9 °F - 70.0 °F 82% 29.85 in 10.0 mi SSW 6.9 mph - N/A   Clear
11:53 PM 75.9 °F - 70.0 °F 82% 29.85 in 10.0 mi SW 5.8 mph - N/A   Clear